Hourly Data Report for June 25, 2004

TORONTO CITY
ONTARIO

43°40'00.000" N
79°24'00.000" W
112.50 m
6158355
71508
XTO

Download Data

Hourly Data (June 2004)
Hourly Data Report for June 25, 2004
TIME
LST
Temp Definition
°C
Dew Point Definition
°C
Rel Hum Definition
%
Precip. Amount Definition
mm

Wind Dir Definition
10's deg

Wind Spd Definition
km/h
Visibility Definition
km
Stn Press Definition
kPa
Hmdx Definition


Wind Chill Definition


Weather Definition


00:00 12.0 8.1 77   LegendMM LegendMM LegendMM 100.64     LegendNANA
01:00 11.9 8.0 77   LegendMM LegendMM LegendMM 100.64     LegendNANA
02:00 11.9 8.0 77   LegendMM LegendMM LegendMM 100.65     LegendNANA
03:00 11.6 8.1 79   LegendMM LegendMM LegendMM 100.71     LegendNANA
04:00 11.2 8.2 82   LegendMM LegendMM LegendMM 100.75     LegendNANA
05:00 10.5 8.2 86   LegendMM LegendMM LegendMM 100.74     LegendNANA
06:00 11.7 7.4 75   LegendMM LegendMM LegendMM 100.75     LegendNANA
07:00 12.4 7.0 70   LegendMM LegendMM LegendMM 100.81     LegendNANA
08:00 13.0 7.3 68   LegendMM LegendMM LegendMM 100.79     LegendNANA
09:00 14.9 8.9 67   LegendMM LegendMM LegendMM 100.74     LegendNANA
10:00 15.4 8.2 62   LegendMM LegendMM LegendMM 100.72     LegendNANA
11:00 15.7 7.4 58   LegendMM LegendMM LegendMM 100.72     LegendNANA
12:00 14.5 7.8 64   LegendMM LegendMM LegendMM 100.68     LegendNANA
13:00 15.4 8.5 63   LegendMM LegendMM LegendMM 100.61     LegendNANA
14:00 16.0 8.3 60   LegendMM LegendMM LegendMM 100.54     LegendNANA
15:00 17.3 9.6 61   LegendMM LegendMM LegendMM 100.47     LegendNANA
16:00 17.3 10.6 65   LegendMM LegendMM LegendMM 100.40     LegendNANA
17:00 16.9 9.9 63   LegendMM LegendMM LegendMM 100.35     LegendNANA
18:00 16.2 9.4 64   LegendMM LegendMM LegendMM 100.29     LegendNANA
19:00 16.1 9.0 63   LegendMM LegendMM LegendMM 100.25     LegendNANA
20:00 15.2 8.7 65   LegendMM LegendMM LegendMM 100.22     LegendNANA
21:00 14.9 8.8 67   LegendMM LegendMM LegendMM 100.26     LegendNANA
22:00 14.6 9.8 73   LegendMM LegendMM LegendMM 100.28     LegendNANA
23:00 14.4 10.3 76   LegendMM LegendMM LegendMM 100.23     LegendNANA

Notes on Data Quality.

Legend

  • E = Estimated
  • M = Missing
  • NA = Not Available*
  • [empty] = Indicates an unobserved value
Date modified: